www.pogodaiklimat.ru

Погода и климат >> Архив погоды >> Япония >> Йоккаити


ПОГОДА в Йоккаити

  • Прогноз погоды в Йоккаити
  • Монитор погоды в Йоккаити

АРХИВ ПОГОДЫ в Йоккаити

Время (UTC), дата Ветер
(напр.,м/с)
 
Видим.   Явления Облачность Т
(С)
Тd
(С)
f
(%)
Тe
(С)
Тes
(С)
Комфортность P
(гПа)
Po
(гПа)
Тmin
(С)
Tmax
(С)
R
(мм)
R24
(мм)
S
(см)
01 16.09 С 3 20 км н/о +31.4 +20.7 53 +38 +38 очень
душно
1001.3 995.0
03 16.09 СЗ 4 20 км н/о +31.6 +20.6 52 +39 +39 очень
душно
1000.4 994.1
04 16.09 СЗ 4 20 км н/о +31.7 +21.0 53 +39 +39 очень
душно
1000.2 993.9
05 16.09 СЗ 3 20 км н/о +31.6 +21.5 55 +40 +40 очень
душно
1000.4 994.1
07 16.09 СЗ 3 20 км н/о +29.2 +20.6 60 +36 +36 очень
душно
1001.1 994.7
08 16.09 СЗ 3 20 км н/о +28.0 +20.3 63 +34 +34 очень
душно
1001.4 995.0
09 16.09 СЗ 3 20 км н/о +27.0 +19.9 65 +33 +33 очень
душно
1001.9 995.5
10 16.09 СЗ 3 20 км н/о +26.7 +19.6 65 +32 +32 очень
душно
1002.5 996.1
11 16.09 С 3 20 км н/о +26.4 +19.3 65 +32 +32 очень
душно
1003.4 997.0
12 16.09 С 3 20 км н/о +26.2 +19.6 67 +32 +32 очень
душно
1003.8 997.4 +32.5
13 16.09 С 2 20 км н/о +26.0 +19.7 68 +32 +32 очень
душно
1004.1 997.6
14 16.09 СЗ 2 20 км н/о +25.1 +19.7 72 +31 +31 очень
душно
1004.2 997.7
15 16.09 СЗ 2 20 км н/о +24.4 +19.9 76 +30 +30 очень
душно
1004.8 998.3
16 16.09 СЗ 1 20 км н/о +23.0 +20.2 84 +30 +30 очень
душно
1005.1 998.6
17 16.09 З 1 20 км н/о +22.6 +20.0 85 +29 +29 очень
душно
1005.2 998.7
18 16.09 СЗ 2 20 км н/о +23.2 +19.6 80 +30 +30 очень
душно
1005.8 999.3
19 16.09 СЗ 2 20 км н/о +22.9 +19.5 81 +29 +29 очень
душно
1006.4 999.9
20 16.09 С 2 20 км н/о +22.7 +19.7 83 +29 +29 очень
душно
1007.1 1000.5
21 16.09 СЗ 1 20 км н/о +22.5 +19.9 85 +29 +29 очень
душно
1007.3 1000.7
22 16.09 СЗ 1 20 км н/о +24.3 +20.0 77 +30 +30 очень
душно
1007.6 1001.1
23 16.09 СЗ 1 20 км н/о +26.8 +20.9 70 +34 +34 очень
душно
1008.2 1001.7
01 17.09 С 2 20 км н/о +30.0 +19.7 54 +36 +36 очень
душно
1008.8 1002.4
02 17.09 В 1 20 км н/о +31.0 +19.7 51 +37 +37 очень
душно
1008.2 1001.8
03 17.09 ЮВ 2 20 км н/о +32.1 +22.8 58 +42 +42 опасность
перегрева
1007.9 1001.6
04 17.09 Ю 1 20 км н/о +29.7 +21.1 60 +37 +37 очень
душно
1007.7 1001.3
05 17.09 В 1 20 км н/о +30.7 +20.0 53 +37 +37 очень
душно
1007.5 1001.1
06 17.09 ЮВ 2 20 км н/о +29.9 +22.1 63 +39 +39 очень
душно
1007.5 1001.1
07 17.09 Ю 1 20 км н/о +29.9 +22.1 63 +39 +39 очень
душно
1007.6 1001.2
08 17.09 С 2 20 км н/о +28.8 +21.3 64 +36 +36 очень
душно
1008.3 1001.9
09 17.09 С 1 20 км н/о +27.4 +21.2 69 +35 +35 очень
душно
1009.0 1002.5
10 17.09 С 2 20 км н/о +26.5 +21.0 72 +33 +33 очень
душно
1009.2 1002.7
11 17.09 С 2 20 км н/о +25.8 +20.6 73 +32 +32 очень
душно
1009.9 1003.4
12 17.09 штиль 0 20 км н/о +25.0 +21.3 80 +32 +32 очень
душно
1010.6 1004.1 +32.4
13 17.09 штиль 0 20 км н/о +25.2 +21.7 81 +32 +32 очень
душно
1010.8 1004.3
14 17.09 Ю 1 20 км в посл. час дождь н/о +24.5 +21.0 81 +31 +31 очень
душно
1010.7 1004.2
15 17.09 З 1 20 км {дождь} н/о +24.3 +22.2 88 +32 +32 очень
душно
1010.6 1004.1
16 17.09 штиль 0 20 км н/о +24.3 +21.8 86 +31 +31 очень
душно
1010.3 1003.8
17 17.09 З 1 20 км н/о +24.3 +22.0 87 +31 +31 очень
душно
1010.0 1003.5
18 17.09 З 1 20 км в посл. час дождь н/о +24.5 +21.4 83 +31 +31 очень
душно
1009.9 1003.4 0.0
20 17.09 Ю 1 2600 м дождь н/о +22.7 +22.2 97 +31 +31 очень
душно
1010.4 1003.8
23 17.09 СЗ 2 20 км слаб. дождь н/о +22.7 +21.0 90 +30 +30 очень
душно
1010.9 1004.3
00 18.09 СЗ 1 20 км слаб. дождь н/о +23.3 +21.9 92 +32 +32 очень
душно
1011.3 1004.7 +22.4 3
01 18.09 ЮВ 1 11 км в посл. час дождь н/о +23.3 +22.8 97 +32 +32 очень
душно
1011.6 1005.0
02 18.09 Ю 2 10 км в посл. час дождь н/о +23.0 +22.3 96 +31 +31 очень
душно
1010.9 1004.3
03 18.09 Ю 1 20 км {дождь} н/о +23.9 +22.3 91 +31 +31 очень
душно
1010.1 1003.6
04 18.09 Ю 2 20 км в посл. час дождь н/о +24.1 +21.8 87 +31 +31 очень
душно
1009.5 1003.0
05 18.09 Ю 2 20 км слаб. дождь н/о +23.7 +21.8 89 +30 +30 очень
душно
1009.2 1002.7
06 18.09 Ю 2 20 км в посл. час дождь н/о +24.8 +22.3 86 +32 +32 очень
душно
1009.3 1002.8 0.0
07 18.09 СЗ 2 20 км н/о +26.5 +18.4 61 +31 +31 душно 1008.9 1002.4
09 18.09 СЗ 2 20 км н/о +24.1 +16.6 63 +28 +28 душно 1009.7 1003.2
10 18.09 СЗ 2 20 км н/о +23.3 +16.6 66 +28 +28 душно 1010.3 1003.7
11 18.09 СЗ 2 20 км н/о +22.4 +16.2 68 +27 +27 душно 1010.7 1004.1
13 18.09 СЗ 1 20 км н/о +21.3 +15.8 71 +25 +25 комфорт 1011.3 1004.7
14 18.09 С 2 20 км н/о +21.7 +15.8 69 +25 +25 комфорт 1011.1 1004.5
15 18.09 СЗ 2 20 км н/о +20.8 +15.8 73 +25 +25 комфорт 1011.1 1004.5
16 18.09 СЗ 2 20 км н/о +20.8 +16.0 74 +25 +25 комфорт 1011.0 1004.4
17 18.09 С 1 20 км н/о +19.5 +16.6 83 +23 +23 комфорт 1011.2 1004.5
18 18.09 СЗ 2 20 км н/о +21.3 +14.9 67 +24 +24 комфорт 1011.4 1004.8
19 18.09 СЗ 2 20 км н/о +20.4 +14.1 67 +24 +24 комфорт 1011.6 1005.0
20 18.09 СЗ 2 20 км н/о +21.0 +13.0 60 +24 +24 комфорт 1011.9 1005.3
21 18.09 СЗ 2 20 км н/о +20.2 +14.3 69 +23 +23 комфорт 1013.0 1006.3
22 18.09 С 2 20 км н/о +21.8 +15.6 68 +25 +25 комфорт 1013.5 1006.9
23 18.09 С 2 20 км н/о +23.6 +15.7 61 +27 +27 жарко 1013.8 1007.2
00 19.09 С 3 20 км н/о +24.6 +15.3 56 +28 +28 душно 1013.9 1007.3 +19.3
01 19.09 С 3 20 км н/о +26.1 +14.6 49 +29 +29 жарко 1013.6 1007.1
02 19.09 С 3 20 км н/о +27.3 +13.3 42 +29 +29 жарко 1013.6 1007.1
03 19.09 С 3 20 км н/о +28.1 +14.0 42 +30 +30 жарко 1013.3 1006.8
04 19.09 СЗ 3 20 км н/о +27.8 +12.6 39 +29 +29 жарко 1013.1 1006.6
05 19.09 СЗ 3 20 км н/о +27.8 +11.8 37 +29 +29 жарко 1012.7 1006.2
06 19.09 С 3 20 км н/о +27.1 +12.0 39 +28 +28 жарко 1012.3 1005.8
07 19.09 С 2 20 км н/о +26.7 +12.7 42 +28 +28 жарко 1012.1 1005.6
08 19.09 СЗ 2 20 км н/о +25.3 +12.2 44 +27 +27 жарко 1012.7 1006.2
09 19.09 СЗ 1 20 км н/о +22.6 +13.7 57 +26 +26 жарко 1013.0 1006.4
10 19.09 З 2 20 км н/о +20.9 +13.9 64 +24 +24 комфорт 1013.5 1006.9
11 19.09 С 1 20 км н/о +19.9 +14.1 69 +23 +23 комфорт 1014.4 1007.7
12 19.09 С 2 20 км н/о +19.7 +13.4 67 +22 +22 комфорт 1014.8 1008.1 +28.4
13 19.09 Ю 1 20 км н/о +17.5 +13.8 79 +19 +19 1015.2 1008.5
14 19.09 ЮВ 1 20 км н/о +17.1 +14.0 82 +18 +18 1015.7 1008.9
15 19.09 СЗ 1 20 км н/о +16.3 +14.0 86 +17 +17 1015.3 1008.5
16 19.09 З 1 20 км н/о +16.1 +13.4 84 +17 +17 1015.2 1008.4
18 19.09 С 1 20 км н/о +15.8 +12.7 82 +16 +16 1015.1 1008.3
19 19.09 З 2 20 км н/о +15.6 +12.7 83 +16 +16 1015.5 1008.7
20 19.09 ЮЗ 1 20 км н/о +14.7 +13.3 91 +15 +15 1015.8 1009.0
21 19.09 Ю 1 20 км н/о +14.3 +13.0 92 +15 +15 1016.4 1009.6
22 19.09 СЗ 1 20 км н/о +16.8 +13.7 82 +18 +18 1017.0 1010.2
23 19.09 С 2 20 км н/о +20.2 +14.1 68 +23 +23 комфорт 1016.5 1009.8
00 20.09 С 2 20 км н/о +22.2 +13.8 59 +25 +25 комфорт 1016.5 1009.9 +14.2
01 20.09 С 2 20 км н/о +24.6 +15.0 55 +27 +27 жарко 1016.1 1009.5
02 20.09 СВ 2 20 км н/о +26.0 +16.0 54 +29 +29 душно 1015.8 1009.3
03 20.09 Ю 1 20 км н/о +26.4 +15.8 52 +30 +30 душно 1015.3 1008.8
04 20.09 Ю 2 20 км н/о +26.4 +16.9 56 +30 +30 душно 1015.2 1008.7
05 20.09 Ю 2 20 км н/о +25.9 +17.8 61 +30 +30 душно 1015.2 1008.7
06 20.09 Ю 2 20 км н/о +24.2 +17.2 65 +28 +28 душно 1015.4 1008.8
07 20.09 Ю 1 20 км слаб. дождь н/о +23.5 +18.2 72 +28 +28 душно 1016.2 1009.6
08 20.09 ЮВ 1 20 км слаб. дождь н/о +22.3 +19.5 84 +28 +28 душно 1016.1 1009.5
09 20.09 штиль 0 9000 м слаб. дождь н/о +21.2 +20.4 95 +26 +26 душно 1016.7 1010.0
10 20.09 ЮЗ 1 9000 м слаб. дождь н/о +20.9 +20.2 96 +27 +27 душно 1017.5 1010.8
11 20.09 ЮЗ 1 4300 м слаб. дождь н/о +20.7 +20.4 98 +27 +27 душно 1018.3 1011.6
12 20.09 ЮЗ 2 10 км слаб. дождь н/о +20.4 +19.6 95 +25 +25 комфорт 1018.5 1011.8 +28.2 0.5
13 20.09 ЮЗ 1 5000 м слаб. дождь н/о +20.2 +19.7 97 +25 +25 комфорт 1018.9 1012.2
14 20.09 ЮЗ 1 5000 м слаб. дождь н/о +19.0 +18.5 97 +22 +22 комфорт 1019.0 1012.3
15 20.09 СЗ 2 8000 м слаб. дождь н/о +19.1 +18.6 97 +22 +22 комфорт 1019.2 1012.5
16 20.09 СВ 1 2400 м дождь н/о +18.6 +18.3 98 +21 +21 комфорт 1019.9 1013.2
17 20.09 С 1 6000 м слаб. дождь н/о +18.8 +18.6 99 +22 +22 комфорт 1018.7 1012.0
18 20.09 С 2 5000 м слаб. дождь н/о +18.7 +18.5 99 +21 +21 комфорт 1018.4 1011.7 8
19 20.09 С 1 5000 м слаб. дождь н/о +18.7 +18.4 98 +21 +21 комфорт 1018.5 1011.8
20 20.09 С 1 6000 м слаб. дождь н/о +18.8 +18.6 99 +21 +21 комфорт 1018.7 1012.0
21 20.09 С 1 5000 м слаб. дождь н/о +18.8 +18.6 99 +21 +21 комфорт 1019.0 1012.3
22 20.09 С 2 6000 м слаб. дождь н/о +18.9 +18.6 98 +21 +21 комфорт 1019.7 1013.0
23 20.09 С 2 6000 м слаб. дождь н/о +19.2 +18.9 98 +22 +22 комфорт 1020.2 1013.5
00 21.09 СВ 3 9000 м в посл. час дождь н/о +19.5 +18.9 96 +22 +22 комфорт 1020.4 1013.7 +18.6 9
01 21.09 СВ 2 19 км слаб. дождь н/о +19.8 +18.6 93 +23 +23 комфорт 1020.7 1014.0
02 21.09 С 2 20 км н/о +20.1 +18.4 90 +24 +24 комфорт 1020.4 1013.7
03 21.09 С 2 20 км {дождь} н/о +20.5 +18.5 88 +25 +25 комфорт 1020.1 1013.4
04 21.09 С 2 20 км н/о +21.0 +18.6 86 +26 +26 душно 1019.6 1012.9
05 21.09 С 2 20 км н/о +21.4 +18.0 81 +26 +26 душно 1018.8 1012.1
06 21.09 С 2 20 км {дождь} н/о +21.4 +17.4 78 +25 +25 комфорт 1018.6 1011.9 0.0
07 21.09 С 2 20 км в посл. час дождь н/о +21.4 +18.6 84 +26 +26 душно 1018.9 1012.2
08 21.09 С 2 20 км н/о +21.3 +18.3 83 +26 +26 душно 1018.8 1012.1
09 21.09 С 1 20 км {дождь} н/о +21.1 +18.7 86 +25 +25 комфорт 1018.7 1012.0
10 21.09 С 1 20 км н/о +20.7 +19.0 90 +26 +26 душно 1019.7 1013.0
11 21.09 СВ 2 20 км н/о +20.5 +19.3 93 +25 +25 комфорт 1020.3 1013.6
12 21.09 З 1 20 км {дождь} н/о +20.6 +19.1 91 +26 +26 душно 1020.3 1013.6 +21.8 0.0
13 21.09 СВ 1 19 км н/о +20.7 +19.5 93 +26 +26 душно 1020.0 1013.3
14 21.09 С 1 20 км н/о +20.8 +19.3 91 +26 +26 душно 1019.6 1012.9
15 21.09 СВ 1 18 км н/о +20.7 +19.5 93 +27 +27 душно 1019.1 1012.4
16 21.09 С 1 20 км н/о +20.7 +19.2 91 +26 +26 душно 1018.7 1012.0
17 21.09 С 1 20 км н/о +20.7 +19.0 90 +26 +26 душно 1018.4 1011.7
18 21.09 СЗ 1 20 км н/о +20.6 +18.7 89 +26 +26 душно 1018.1 1011.4
19 21.09 С 1 20 км н/о +20.5 +18.6 89 +26 +26 душно 1017.9 1011.2
20 21.09 С 1 20 км н/о +20.5 +18.5 88 +25 +25 комфорт 1017.7 1011.0
21 21.09 СВ 1 20 км н/о +20.3 +18.1 87 +25 +25 комфорт 1017.8 1011.1
22 21.09 СВ 1 20 км н/о +21.0 +18.0 83 +26 +26 душно 1017.7 1011.0
23 21.09 С 2 20 км н/о +22.0 +18.2 79 +27 +27 душно 1017.1 1010.5
00 22.09 С 1 20 км н/о +22.9 +17.8 73 +28 +28 душно 1017.3 1010.7 +19.8
01 22.09 В 1 20 км н/о +24.7 +17.7 65 +29 +29 душно 1017.1 1010.5
02 22.09 ЮВ 2 20 км н/о +25.2 +19.4 70 +30 +30 душно 1016.0 1009.5
03 22.09 ЮВ 2 20 км н/о +24.6 +19.2 72 +30 +30 очень
душно
1015.2 1008.6
04 22.09 ЮВ 3 20 км слаб. дождь н/о +24.6 +20.3 77 +30 +30 очень
душно
1014.1 1007.5
05 22.09 СВ 2 14 км слаб. дождь н/о +23.3 +21.2 88 +31 +31 очень
душно
1013.0 1006.4
06 22.09 СЗ 2 20 км в посл. час дождь н/о +22.1 +21.4 96 +29 +29 очень
душно
1012.2 1005.6 1
07 22.09 С 2 20 км слаб. дождь н/о +22.0 +21.0 94 +28 +28 душно 1011.6 1005.0
08 22.09 СЗ 2 9000 м слаб. дождь н/о +22.0 +21.7 98 +29 +29 очень
душно
1011.8 1005.2
09 22.09 С 1 3200 м дождь н/о +22.0 +22.0 100 +29 +29 очень
душно
1011.8 1005.2
10 22.09 В 6 20 км слаб. дождь н/о +23.5 +21.6 89 +30 +30 очень
душно
1011.6 1005.0
11 22.09 ЮВ 5 20 км слаб. дождь н/о +23.7 +21.8 89 +30 +30 очень
душно
1012.0 1005.4
12 22.09 ЮВ 4 20 км слаб. дождь н/о +23.9 +22.2 90 +31 +31 очень
душно
1011.9 1005.3 +26.0 10
13 22.09 ЮВ 5 19 км слаб. дождь н/о +24.0 +22.4 91 +31 +31 очень
душно
1011.1 1004.6
14 22.09 ЮВ 5 20 км в посл. час дождь н/о +24.0 +22.6 92 +31 +31 очень
душно
1010.2 1003.7
15 22.09 ЮВ 5 4200 м дождь н/о +23.6 +23.1 97 +31 +31 очень
душно
1009.2 1002.7
16 22.09 ЮВ 5 14 км слаб. дождь н/о +23.9 +23.4 97 +32 +32 очень
душно
1008.7 1002.2
17 22.09 ЮВ 4 9000 м в посл. час дождь н/о +25.3 +25.0 98 +36 +36 очень
душно
1007.9 1001.4
18 22.09 ЮВ 3 12 км {дождь} н/о +25.4 +24.7 96 +36 +36 очень
душно
1007.0 1000.5 3
19 22.09 ЮВ 4 15 км в посл. час дождь н/о +25.5 +24.3 93 +35 +35 очень
душно
1005.9 999.4
20 22.09 ЮВ 4 14 км слаб. дождь н/о +26.0 +24.6 92 +37 +37 очень
душно
1005.6 999.1
21 22.09 Ю 5 5000 м слаб. дождь н/о +25.6 +24.7 95 +36 +36 очень
душно
1005.7 999.2
22 22.09 Ю 3 10 км слаб. дождь н/о +25.4 +24.7 96 +36 +36 очень
душно
1006.2 999.7
23 22.09 Ю 4 20 км в посл. час дождь н/о +27.2 +25.0 88 +39 +39 очень
душно
1006.4 1000.0

 

Местоположение метеостанции Йоккаити (Япония): широта 34.93 долгота 136.58 высота над уровнем моря 56 м.

В архиве по умолчанию представлена погода в Йоккаити за последнюю неделю. Архивные данные за месяц целиком и за предыдущие месяцы, начиная с января 2011 года, Вы можете получить, выбрав интересующий диапазон дат из раскрывающегося списка и нажав кнопку "Ввод!".


*Определитесь, кто Вы:
робот инопланетянин человек

Внимание! Время в таблицах - всемирное. Для получения местного времени необходимо прибавить поправку, которая равна 9 ч.

Смотрите также архив погоды в соседних городах и на ближайших метеорологических станциях:

Погода в Цу (Япония) (23 км)
Погода в Уэно (Япония) (43 км)
Погода в Нагоя (Япония) (44 км)
Погода в Хиконе (Япония) (49 км)
Погода в Гифу (Япония) (55 км)
Погода в Ирако (Япония) (58 км)
Погода в Наре (Япония) (73 км)
Погода в Киото (Япония) (78 км)
Погода в Цуруге (Япония) (93 км)
Погода в Осаке (Япония) (102 км)

Пояснения к столбцам:

Ветер - указаны скорость ветра в м/с - средняя за 10 мин, порывы в срок и между сроками (в фигурных скобках) и направление, откуда дует ветер: С - северный, СВ - северо-восточный, В - восточный, ЮВ - юго-восточный, Ю - южный, ЮЗ - юго-западный, З - западный, СЗ - северо-западный.
Видимость - горизонтальная дальность видимости в метрах или километрах. При видимости от 1 до 10 км при отсутствии осадков обычно наблюдается дымка, при ухудшении видимости до 1 км и менее - туман. В сухую погоду видимость может ухудшаться дымом, пылью или мглою.
Явления - указаны атмосферные явления, наблюдавшиеся в срок или в последний час перед сроком; фигурными скобками обозначены явления, наблюдавшиеся между сроками (за 1-3 часа до срока); квадратными скобками обозначены град или гололедные отложения с указанием их диаметра в мм.
Облачность - указаны через наклонную черту общая и нижняя облачность в баллах и высота нижней границы облаков в метрах; квадратными скобками обозначены формы облаков: Ci - перистые, Cs - перисто-слоистые, Cc - перисто-кучевые, Ac - высококучевые, As - высокослоистые, Sc - слоисто-кучевые, Ns - слоисто-дождевые, Cu - кучевые, Cb - кучево-дождевые. Подробнее классификацию облаков см. в Атласе облаков (PDF).
T - Температура воздуха - температура, измеренная на высоте 2 м над землей.
Td - Температура точки росы - температура, при понижении до которой содержащийся в воздухе водяной пар достигнет насыщения.
f - Относительная влажность воздуха - влажноcть воздуха, измеренная на высоте 2 м над землей.
Te - Эффективная температура - температура, которую ощущает одетый по сезону человек в тени. Характеристика душности погоды. При расчете учитывается влияние влажности воздуха и скорости ветра на теплоощущения человека.
Tes - Эффективная температура на солнце - температура, которую ощущает человек, с поправкой на солнечный нагрев. Характеристика знойности погоды. Зависит от высоты солнца над горизонтом, облачности и скорости ветра. Ночью, в пасмурную погоду, а также при ветре 12 м/с и более поправка равна нулю.
P - Атмосферное давление - приведенное к уровню моря атмосферное давление.
Po - Атмосферное давление - измеренное на уровне метеостанции атмосферное давление.
Tmin - Минимальная температура - минимум температуры воздуха на высоте 2 м над землей.
Tmax - Максимальная температура - максимум температуры воздуха на высоте 2 м над землей.
R - Количество осадков - Количество выпавших осадков за период времени, мм. При наведении курсора мыши на число - период времени, за который выпало указанное количество осадков.
R24 - Количество осадков - Количество выпавших осадков за 24 часа, мм.
S - Снежный покров - Высота снежного покрова, см. При наведении курсора мыши на число - состояние снежного покрова и степень покрытия местности в баллах.